DM5RC Weather Reports


time (UTC)temp
C
wind
direction
speed
KPH
gust
KPH
rain 1hr
cm
rain 24hr
cm
rain mn
cm
humidity
%
barometer
mb
20260507072847 7 47 8.0 16.1 0.10 2.11 0.43 94 1011.0
20260507072323 7 56 8.0 16.1 0.10 2.11 0.43 94 1010.9
20260507071818 7 6 8.0 16.1 0.10 2.11 0.43 94 1010.8
20260507071321 7 48 6.4 14.5 0.10 2.11 0.43 94 1010.7
20260507070820 7 50 8.0 16.1 0.10 2.11 0.43 94 1010.6
20260507070319 7 39 6.4 16.1 0.10 2.11 0.43 94 1010.6
20260507065820 7 60 8.0 19.3 0.10 2.11 0.43 94 1010.6
20260507065318 7 72 9.7 19.3 0.10 2.11 0.43 95 1010.6
20260507064819 7 39 8.0 19.3 0.10 2.11 0.43 95 1010.6
20260507064319 7 14 8.0 19.3 0.10 2.11 0.43 95 1010.5
20260507063822 7 53 6.4 16.1 0.00 2.01 0.41 95 1010.4
20260507063325 7 53 6.4 16.1 0.00 2.01 0.41 95 1010.4
20260507062826 7 39 8.0 12.9 0.00 2.01 0.41 95 1010.4
20260507062328 7 20 8.0 12.9 0.00 2.01 0.41 95 1010.4
20260507061847 7 39 4.8 9.7 0.00 2.01 0.41 95 1010.3
20260507061325 7 51 6.4 12.9 0.00 2.01 0.41 95 1010.3
20260507060847 7 360 4.8 11.3 0.00 2.01 0.41 95 1010.2
20260507055831 7 344 9.7 17.7 0.00 2.01 0.41 95 1010.1
20260507055314 7 11 9.7 17.7 0.00 2.01 0.41 95 1010.0
20260507054815 7 21 6.4 16.1 0.00 2.01 0.41 95 1009.9
20260507054316 7 18 6.4 17.7 0.10 2.01 0.41 95 1009.9
20260507053819 7 24 8.0 17.7 0.10 2.01 0.41 95 1009.8
20260507053322 7 25 4.8 12.9 0.10 2.01 0.41 95 1009.8
20260507052911 7 56 4.8 12.9 0.10 2.01 0.41 95 1009.8
20260507052349 7 345 6.4 12.9 0.10 2.01 0.41 95 1009.8
20260507051830 7 27 4.8 12.9 0.10 2.01 0.41 95 1009.7
20260507051332 7 30 4.8 12.9 0.10 2.01 0.41 95 1009.7
20260507050814 7 43 6.4 12.9 0.20 2.01 0.41 95 1009.6
20260507050338 7 52 6.4 11.3 0.20 2.01 0.41 95 1009.6
20260507045820 7 49 4.8 11.3 0.20 2.11 0.41 95 1009.5
20260507045321 7 356 4.8 14.5 0.20 2.11 0.41 95 1009.4
20260507044841 7 16 4.8 14.5 0.20 2.11 0.41 95 1009.4
20260507044321 7 61 6.4 16.1 0.10 2.01 0.38 95 1009.2
20260507043822 7 44 8.0 17.7 0.20 2.01 0.38 95 1009.1
20260507043324 7 32 6.4 17.7 0.20 2.01 0.38 95 1009.0
20260507042824 7 8 4.8 16.1 0.20 2.01 0.38 95 1008.9
20260507042320 8 53 8.0 16.1 0.30 2.01 0.38 95 1008.9
20260507041820 7 40 4.8 16.1 0.41 2.01 0.38 95 1009.0
20260507041321 8 49 3.2 12.9 0.41 2.01 0.38 95 1008.9
20260507040822 8 120 6.4 16.1 0.41 1.91 0.36 95 1008.7
20260507040322 8 25 6.4 19.3 0.51 1.91 0.36 95 1008.6
20260507035822 7 40 6.4 19.3 0.61 1.91 0.36 95 1008.6
20260507035322 7 38 8.0 19.3 0.61 1.91 0.36 95 1008.5
20260507034823 7 19 9.7 19.3 0.71 1.91 0.36 95 1008.5
20260507034324 8 33 8.0 19.3 0.71 1.91 0.36 95 1008.5
20260507033825 8 52 6.4 16.1 0.61 1.80 0.33 95 1008.4
20260507033327 8 18 4.8 16.1 0.71 1.80 0.33 95 1008.3
20260507032832 8 20 6.4 16.1 0.71 1.80 0.33 95 1008.4
20260507032315 8 45 8.0 17.7 0.71 1.70 0.33 95 1008.3
20260507031837 8 46 11.3 17.7 0.71 1.60 0.30 95 1008.3
20260507031319 8 32 4.8 19.3 0.79 1.60 0.30 95 1008.3
20260507030822 8 39 9.7 20.9 0.79 1.50 0.28 95 1008.2
20260507030324 8 22 8.0 19.3 0.71 1.40 0.25 95 1008.2
20260507025827 8 52 11.3 20.9 0.71 1.30 0.23 94 1008.2
20260507025330 8 32 8.0 20.9 0.71 1.30 0.23 94 1008.2
20260507024831 8 345 8.0 14.5 0.71 1.19 0.23 95 1008.1
20260507024331 8 53 6.4 16.1 0.79 1.19 0.23 94 1008.0
20260507023813 8 44 8.0 16.1 0.71 1.09 0.20 94 1008.1
20260507023315 8 32 9.7 19.3 0.79 1.09 0.20 94 1008.1
20260507022838 8 35 8.0 19.3 0.89 1.09 0.20 94 1008.0
20260507022317 8 31 9.7 17.7 0.79 0.99 0.18 94 1008.0
20260507021817 8 35 9.7 16.1 0.79 0.89 0.15 94 1008.1
20260507021318 8 51 6.4 12.9 0.71 0.79 0.15 94 1008.2
20260507020819 8 54 8.0 12.9 0.61 0.71 0.13 93 1008.2
20260507020321 8 25 4.8 12.9 0.61 0.71 0.13 93 1008.1
20260507015821 8 50 6.4 16.1 0.51 0.79 0.10 93 1008.2
20260507015321 8 33 8.0 14.5 0.51 0.79 0.10 93 1008.3
20260507014826 8 56 9.7 14.5 0.41 0.71 0.08 93 1008.2
20260507014329 8 58 4.8 11.3 0.30 0.61 0.05 93 1008.2
20260507013832 8 47 4.8 11.3 0.30 0.61 0.05 93 1008.2
20260507013315 8 48 6.4 12.9 0.20 0.51 0.05 92 1008.2
20260507012815 8 25 8.0 12.9 0.10 0.41 0.03 92 1008.2
20260507012314 8 51 3.2 12.9 0.10 0.41 0.03 92 1008.3
20260507011835 8 44 4.8 12.9 0.00 0.30 0.00 92 1008.2
20260507011313 8 56 6.4 11.3 0.00 0.30 0.00 92 1008.2
20260507010833 8 16 6.4 12.9 0.00 0.30 0.00 91 1008.2
20260507010334 8 34 6.4 12.9 0.00 0.30 0.00 91 1008.1
20260507005817 8 73 6.4 12.9 0.00 2.21 0.00 91 1008.0
20260507005319 8 49 6.4 17.7 0.00 2.21 0.00 91 1008.0
20260507004821 8 48 8.0 17.7 0.00 2.21 0.00 91 1007.9
20260507004324 8 58 9.7 14.5 0.00 2.21 0.00 91 1007.8
20260507003827 9 32 4.8 12.9 0.00 2.21 0.00 91 1007.9
20260507003329 9 42 6.4 14.5 0.00 2.21 0.00 91 1007.9
20260507002830 9 15 6.4 12.9 0.00 2.21 0.00 91 1007.8
20260507002314 9 141 6.4 17.7 0.00 2.21 0.00 90 1007.8
20260507001818 9 64 8.0 17.7 0.00 2.21 0.00 90 1007.8
20260507001322 9 61 9.7 16.1 0.00 2.21 0.00 90 1007.8
20260507000824 9 28 6.4 19.3 0.00 2.21 0.00 90 1007.7
20260507000345 9 355 8.0 19.3 0.00 2.21 0.00 90 1007.7
20260506235826 9 19 6.4 14.5 0.00 4.90 0.00 90 1007.6
20260506235328 9 333 8.0 14.5 0.00 4.90 0.00 90 1007.7
20260506234830 9 47 4.8 12.9 0.00 4.90 0.00 90 1007.7
20260506234313 9 27 6.4 12.9 0.00 4.90 0.00 90 1007.5
20260506233815 9 71 4.8 19.3 0.00 4.90 0.00 90 1007.7
20260506233317 9 46 8.0 19.3 0.00 4.90 0.00 90 1007.6
20260506232838 9 338 8.0 16.1 0.00 4.90 0.00 90 1007.7
20260506232337 9 56 8.0 19.3 0.00 4.90 0.00 90 1007.6
20260506231816 9 352 8.0 20.9 0.00 4.90 0.00 90 1007.6
20260506231336 9 15 9.7 20.9 0.00 4.90 0.00 90 1007.5
20260506230853 10 57 6.4 16.1 0.00 4.90 0.00 90 1007.6
20260506230351 10 4 8.0 16.1 0.00 4.90 0.00 90 1007.6
20260506225830 10 14 8.0 16.1 0.00 7.49 0.00 90 1007.5
20260506224838 10 38 8.0 16.1 0.00 7.49 0.00 90 1007.3
20260506224318 10 8 6.4 16.1 0.00 7.49 0.00 90 1007.4
20260506223819 10 6 9.7 16.1 0.00 7.49 0.00 89 1007.4
20260506223319 10 49 8.0 20.9 0.00 7.49 0.00 89 1007.4
20260506222820 10 68 8.0 20.9 0.00 7.49 0.00 89 1007.4
20260506222320 10 18 6.4 14.5 0.00 7.49 0.00 89 1007.5
20260506221840 10 54 4.8 17.7 0.00 7.49 0.00 89 1007.4
20260506221318 10 28 8.0 17.7 0.00 7.49 0.00 89 1007.3
20260506220820 10 44 6.4 19.3 0.00 7.49 0.00 89 1007.1
20260506220406 10 20 8.0 19.3 0.00 7.49 0.00 89 1007.1
20260506215822 10 53 6.4 20.9 0.00 7.70 1.50 89 1007.0
20260506215345 10 43 9.7 20.9 0.00 7.70 1.50 89 1006.9
20260506214823 10 35 9.7 20.9 0.00 7.70 1.50 89 1006.9
20260506214328 10 47 6.4 16.1 0.00 7.70 1.50 89 1006.8
20260506213813 10 30 9.7 16.1 0.00 7.70 1.50 89 1006.9
20260506213336 10 51 6.4 14.5 0.00 7.70 1.50 89 1006.9
20260506212819 10 33 4.8 22.5 0.00 7.70 1.50 89 1006.8
20260506212342 10 41 11.3 22.5 0.00 7.70 1.50 89 1006.9
20260506211824 11 36 6.4 17.7 0.00 7.70 1.50 89 1006.8
20260506211324 11 4 8.0 17.7 0.00 7.70 1.50 89 1006.9
20260506210824 11 58 8.0 16.1 0.00 7.70 1.50 89 1006.7
20260506210324 11 39 9.7 16.1 0.00 7.70 1.50 89 1006.6
20260506205825 11 61 4.8 16.1 0.00 7.70 1.50 89 1006.7
20260506205326 11 42 8.0 17.7 0.00 7.70 1.50 89 1006.7
20260506204827 11 28 4.8 17.7 0.00 7.70 1.50 89 1006.7
20260506204328 11 20 8.0 16.1 0.00 7.70 1.50 89 1006.7
20260506203829 11 56 8.0 16.1 0.00 7.70 1.50 89 1006.7
20260506203328 11 55 6.4 17.7 0.00 7.70 1.50 89 1006.7
20260506202829 11 42 8.0 17.7 0.00 7.70 1.50 89 1006.8
20260506202331 11 23 8.0 20.9 0.00 7.70 1.50 88 1006.7
20260506201814 11 45 9.7 20.9 0.00 7.70 1.50 88 1006.9
20260506201316 11 359 4.8 17.7 0.00 7.70 1.50 89 1006.9
20260506200837 11 15 8.0 17.7 0.00 7.70 1.50 89 1006.8
20260506200315 11 65 8.0 17.7 0.00 7.70 1.50 89 1006.7
20260506195835 11 50 6.4 17.7 0.00 7.70 1.50 89 1006.5
20260506195312 11 49 8.0 16.1 0.00 7.70 1.50 89 1006.4
20260506194815 11 53 8.0 16.1 0.00 7.70 1.50 88 1006.5
20260506194337 11 51 9.7 20.9 0.00 7.70 1.50 88 1006.3
20260506193818 11 34 8.0 20.9 0.00 7.70 1.50 88 1006.2
20260506193319 12 74 9.7 17.7 0.00 7.70 1.50 87 1006.2
20260506192822 12 32 8.0 17.7 0.00 7.70 1.50 88 1006.1
20260506192325 12 51 6.4 19.3 0.00 7.70 1.50 88 1006.1
20260506191828 12 47 11.3 19.3 0.00 7.70 1.50 87 1006.1
20260506191329 12 18 8.0 16.1 0.00 7.70 1.50 88 1006.0
20260506190832 12 17 6.4 17.7 0.00 7.70 1.50 87 1006.0
20260506190331 12 47 9.7 17.7 0.00 7.70 1.50 87 1005.9
20260506185833 12 342 8.0 17.7 0.00 7.70 1.50 87 1005.9
20260506185351 12 68 4.8 17.7 0.00 7.70 1.50 87 1005.9
20260506184852 12 61 6.4 19.3 0.00 7.70 1.50 87 1005.8
20260506184313 12 16 11.3 19.3 0.00 7.70 1.50 87 1005.9
20260506183814 12 66 11.3 17.7 0.00 7.70 1.50 87 1005.8
20260506183317 12 50 8.0 17.7 0.00 7.70 1.50 87 1005.9
20260506182905 12 63 9.7 22.5 0.00 7.70 1.50 87 1005.8
20260506182323 12 78 14.5 22.5 0.00 7.70 1.50 87 1005.8
20260506181847 13 50 6.4 14.5 0.00 7.70 1.50 87 1005.8
20260506181331 13 44 6.4 17.7 0.00 7.70 1.50 86 1005.7
20260506180835 13 28 8.0 17.7 0.00 7.70 1.50 86 1005.7
20260506180316 13 22 8.0 14.5 0.00 7.70 1.50 86 1005.6
20260506175820 13 36 6.4 14.5 0.00 7.70 1.50 86 1005.6
20260506175322 13 22 6.4 20.9 0.00 7.70 1.50 86 1005.6
20260506174823 13 41 6.4 19.3 0.00 7.70 1.50 85 1005.5
20260506174325 13 34 9.7 19.3 0.00 7.70 1.50 85 1005.5
20260506173825 13 53 11.3 20.9 0.00 7.70 1.50 85 1005.5
20260506173325 13 26 6.4 19.3 0.00 7.70 1.50 85 1005.4
20260506172825 13 338 8.0 19.3 0.00 7.70 1.50 84 1005.3
20260506172327 13 35 8.0 17.7 0.00 7.70 1.50 83 1005.4
20260506171829 14 29 9.7 17.7 0.00 7.70 1.50 83 1005.3
20260506171331 14 17 9.7 19.3 0.00 7.70 1.50 83 1005.2
20260506170815 14 27 9.7 19.3 0.00 7.70 1.50 82 1005.1
20260506170319 14 45 8.0 17.7 0.00 7.70 1.50 82 1005.0
20260506165819 15 31 8.0 17.7 0.00 7.70 1.50 83 1004.9
20260506165324 15 56 6.4 14.5 0.00 7.70 1.50 83 1005.0
20260506164828 15 44 9.7 19.3 0.00 7.70 1.50 83 1005.0
20260506164331 15 49 9.7 20.9 0.00 7.70 1.50 83 1005.0
20260506163830 15 30 11.3 20.9 0.00 7.70 1.50 81 1005.0
20260506163330 15 40 9.7 19.3 0.00 7.70 1.50 81 1005.0
20260506162830 15 25 8.0 19.3 0.00 7.70 1.50 81 1005.0
20260506162331 15 21 8.0 14.5 0.00 7.70 1.50 80 1005.2
20260506161830 15 11 8.0 12.9 0.00 7.70 1.50 80 1005.2
20260506161330 15 28 8.0 14.5 0.00 7.70 1.50 80 1005.2
20260506160831 15 48 4.8 14.5 0.00 7.70 1.50 80 1005.2
20260506160313 15 28 6.4 17.7 0.00 7.70 1.50 80 1005.2
20260506155835 15 70 9.7 19.3 0.00 7.70 1.50 80 1005.1
20260506155316 15 35 8.0 20.9 0.00 7.70 1.50 80 1005.2
20260506154832 15 20 12.9 20.9 0.00 7.70 1.50 79 1005.2
20260506154314 16 3 11.3 20.9 0.00 7.70 1.50 79 1005.3
20260506153816 16 31 8.0 17.7 0.00 7.70 1.50 79 1005.4
20260506153319 16 49 9.7 17.7 0.00 7.70 1.50 80 1005.3
20260506152821 16 19 9.7 17.7 0.00 7.70 1.50 80 1005.4
20260506152324 16 48 9.7 19.3 0.00 7.70 1.50 80 1005.3
20260506151845 15 68 9.7 19.3 0.00 7.70 1.50 81 1005.3
20260506151347 16 55 11.3 17.7 0.00 7.70 1.50 80 1005.3
20260506150849 16 23 8.0 17.7 0.00 7.70 1.50 81 1005.2
20260506150332 16 43 9.7 20.9 0.00 7.70 1.50 80 1005.2
20260506145816 16 99 8.0 22.5 0.00 7.70 1.50 80 1005.2
20260506145318 16 357 9.7 22.5 0.00 7.70 1.50 79 1005.2
20260506144820 16 5 6.4 22.5 0.00 7.70 1.50 80 1005.2
20260506144341 16 341 11.3 22.5 0.00 7.70 1.50 79 1005.1
20260506143817 16 18 12.9 20.9 0.00 7.70 1.50 78 1005.1
20260506142818 16 13 8.0 20.9 0.00 7.70 1.50 79 1005.0
20260506142315 16 18 9.7 20.9 0.00 7.70 1.50 79 1005.1
20260506141815 17 19 6.4 16.1 0.00 7.70 1.50 78 1005.1
20260506141316 17 360 8.0 17.7 0.00 7.70 1.50 77 1005.3
20260506140817 17 53 8.0 17.7 0.00 7.70 1.50 77 1005.2
20260506140317 17 17 1.6 20.9 0.00 7.70 1.50 79 1005.3
20260506135836 17 19 14.5 20.9 0.00 7.70 1.50 77 1005.2
20260506135316 17 357 6.4 17.7 0.00 7.70 1.50 78 1005.2
20260506134819 16 296 6.4 17.7 0.00 7.70 1.50 78 1005.2
20260506134321 16 23 11.3 17.7 0.00 7.70 1.50 77 1005.3
20260506133821 16 285 6.4 17.7 0.00 7.70 1.50 77 1005.3
20260506133321 17 342 4.8 17.7 0.00 7.70 1.50 77 1005.3
20260506132821 17 19 8.0 16.1 0.00 7.70 1.50 76 1005.2
20260506132322 17 335 8.0 12.9 0.00 7.70 1.50 75 1005.2
20260506131824 17 9 4.8 11.3 0.00 7.70 1.50 77 1005.1
20260506131346 17 296 3.2 16.1 0.00 7.70 1.50 77 1005.2
20260506130847 17 341 8.0 19.3 0.00 7.70 1.50 76 1005.1
20260506130329 17 348 9.7 24.1 0.00 7.70 1.50 77 1005.0
20260506125831 18 12 9.7 24.1 0.00 7.70 1.50 74 1005.1
20260506125313 17 12 9.7 24.1 0.00 7.70 1.50 75 1005.2
20260506124813 17 319 14.5 24.1 0.00 7.70 1.50 76 1005.0
20260506124336 17 345 6.4 20.9 0.00 7.70 1.50 77 1005.0
20260506123817 17 2 9.7 22.5 0.00 7.70 1.50 76 1005.0
20260506123320 17 288 8.0 22.5 0.00 7.70 1.50 77 1004.9
20260506122823 17 334 6.4 14.5 0.00 7.70 1.50 77 1004.9
20260506122328 17 272 6.4 14.5 0.00 7.70 1.50 77 1005.0
20260506121831 17 284 6.4 14.5 0.00 7.70 1.50 78 1004.9
20260506121312 17 255 6.4 16.1 0.00 7.70 1.50 77 1005.0
20260506120815 17 276 8.0 17.7 0.00 7.70 1.50 78 1005.0
20260506120319 17 291 8.0 17.7 0.00 7.70 1.50 78 1004.9
20260506115820 16 255 14.5 17.7 0.00 7.70 1.50 77 1004.9
20260506115321 17 347 6.4 17.7 0.00 7.70 1.50 78 1004.9
20260506114822 16 319 8.0 22.5 0.00 7.70 1.50 78 1004.9
20260506114323 16 310 8.0 22.5 0.00 7.70 1.50 79 1005.0
20260506113824 16 273 8.0 27.4 0.00 7.70 1.50 79 1004.9
20260506113344 16 16 12.9 27.4 0.00 7.70 1.50 78 1004.9
20260506112824 17 4 11.3 27.4 0.00 7.70 1.50 78 1004.9
20260506112327 17 281 8.0 27.4 0.00 7.70 1.50 79 1004.8
20260506111832 17 345 14.5 24.1 0.00 7.70 1.50 78 1004.7
20260506111315 17 273 9.7 24.1 0.00 7.70 1.50 77 1004.7
20260506110820 17 286 12.9 24.1 0.00 7.70 1.50 78 1004.6
20260506110321 17 342 11.3 20.9 0.00 7.70 1.50 78 1004.6
20260506105842 17 279 8.0 22.5 0.00 7.70 1.50 78 1004.5
20260506105321 17 257 9.7 24.1 0.00 7.70 1.50 78 1004.5
20260506104823 17 279 9.7 20.9 0.00 7.70 1.50 78 1004.4
20260506104327 17 267 9.7 20.9 0.00 7.70 1.50 79 1004.4
20260506103831 17 322 8.0 25.7 0.00 7.70 1.50 79 1004.5
20260506103314 16 250 11.3 25.7 0.00 7.70 1.50 81 1004.4
20260506102817 16 295 8.0 24.1 0.00 7.70 1.50 81 1004.5
20260506102319 17 283 12.9 24.1 0.00 7.70 1.50 80 1004.3
20260506101821 17 19 6.4 19.3 0.00 7.70 1.50 83 1004.3
20260506101323 16 254 8.0 17.7 0.00 7.70 1.50 83 1004.3
20260506100823 16 330 6.4 32.2 0.00 7.70 1.50 84 1004.2
20260506100323 16 272 16.1 32.2 0.00 7.70 1.50 82 1004.2
20260506095825 16 312 9.7 27.4 0.00 7.70 1.50 80 1004.1
20260506095328 17 300 16.1 27.4 0.00 7.70 1.50 79 1004.0
20260506094831 17 292 14.5 27.4 0.00 7.70 1.50 80 1003.9
20260506094327 16 309 12.9 27.4 0.00 7.70 1.50 81 1003.7
20260506093830 16 275 11.3 29.0 0.00 7.70 1.50 82 1003.7
20260506093314 16 276 11.3 29.0 0.00 7.70 1.50 84 1003.6
20260506092816 16 280 14.5 29.0 0.00 7.70 1.50 83 1003.5
20260506092315 16 271 11.3 35.4 0.00 7.70 1.50 83 1003.6
20260506091816 16 277 12.9 35.4 0.00 7.70 1.50 82 1003.4
20260506090819 16 307 14.5 32.2 0.00 7.70 1.50 83 1003.1
20260506090322 16 299 8.0 32.2 0.00 7.70 1.50 83 1003.1
20260506085825 16 241 17.7 32.2 0.00 8.00 1.50 82 1003.1
20260506085346 16 284 11.3 32.2 0.00 8.00 1.50 85 1003.0
20260506084827 16 259 16.1 32.2 0.00 8.00 1.50 85 1003.0
20260506084329 15 267 9.7 32.2 0.00 8.00 1.50 87 1002.8
20260506083831 16 266 12.9 29.0 0.00 8.00 1.50 87 1002.8
20260506083332 15 255 9.7 29.0 0.00 8.00 1.50 90 1002.8
20260506082812 15 236 8.0 16.1 0.00 8.00 1.50 90 1003.0
20260506082313 15 271 8.0 14.5 0.00 8.00 1.50 91 1002.9
20260506081813 15 262 6.4 22.5 0.00 8.00 1.50 92 1002.9
20260506081333 14 257 12.9 22.5 0.00 8.00 1.50 92 1002.9
20260506080813 14 275 3.2 12.9 0.00 8.00 1.50 92 1002.8
20260506080333 14 249 6.4 14.5 0.00 8.00 1.50 92 1002.9
20260506073329 13 224 6.4 11.3 0.00 8.20 1.50 94 1002.8